| time (UTC) | temp F | wind direction | speed knots | gust knots | rain 1hr in | rain 24hr in | rain mn in | humidity % | barometer mb |
| 20260509111701 | 46 | 104 | 0.0 | 0.0 | 0.00 | 0.02 | 0.00 | 74 | 1007.3 |
| 20260509111139 | 46 | 104 | 0.0 | 0.9 | 0.00 | 0.02 | 0.00 | 74 | 1007.5 |
| 20260509105701 | 45 | 103 | 0.0 | 1.7 | 0.00 | 0.02 | 0.00 | 74 | 1007.3 |
| 20260509104701 | 45 | 103 | 0.0 | 0.9 | 0.00 | 0.02 | 0.00 | 74 | 1007.3 |
| 20260509104141 | 44 | 103 | 0.0 | 0.0 | 0.00 | 0.02 | 0.00 | 74 | 1007.2 |
| 20260509102701 | 44 | 103 | 0.0 | 0.0 | 0.00 | 0.02 | 0.00 | 73 | 1007.2 |
| 20260509101701 | 44 | 103 | 0.0 | 0.0 | 0.00 | 0.02 | 0.00 | 73 | 1007.1 |
| 20260509100701 | 44 | 103 | 0.0 | 0.0 | 0.00 | 0.02 | 0.00 | 72 | 1007.1 |
| 20260509095701 | 43 | 103 | 0.0 | 0.0 | 0.00 | 0.02 | 0.00 | 72 | 1007.1 |
| 20260509094701 | 43 | 103 | 0.0 | 0.0 | 0.00 | 0.02 | 0.00 | 72 | 1007.2 |
| 20260509093700 | 43 | 103 | 0.0 | 0.0 | 0.00 | 0.02 | 0.00 | 72 | 1007.3 |
| 20260509093139 | 43 | 103 | 0.0 | 0.0 | 0.00 | 0.02 | 0.00 | 72 | 1007.2 |
| 20260509092144 | 43 | 103 | 0.0 | 0.0 | 0.00 | 0.02 | 0.00 | 72 | 1007.2 |
| 20260509090701 | 43 | 103 | 0.0 | 0.0 | 0.00 | 0.02 | 0.00 | 72 | 1007.3 |
| 20260509085701 | 43 | 103 | 0.0 | 0.0 | 0.00 | 0.02 | 0.00 | 72 | 1007.4 |
| 20260509084701 | 43 | 103 | 0.0 | 0.0 | 0.00 | 0.02 | 0.00 | 72 | 1007.4 |
| 20260509083701 | 42 | 103 | 0.0 | 0.9 | 0.00 | 0.02 | 0.00 | 73 | 1007.5 |
| 20260509082701 | 42 | 103 | 0.0 | 0.0 | 0.00 | 0.02 | 0.00 | 73 | 1007.6 |
| 20260509081701 | 42 | 103 | 0.0 | 0.0 | 0.00 | 0.02 | 0.00 | 73 | 1007.6 |
| 20260509080702 | 42 | 103 | 0.0 | 0.0 | 0.00 | 0.02 | 0.00 | 73 | 1007.7 |
| 20260509075702 | 42 | 103 | 0.0 | 0.0 | 0.00 | 0.02 | 0.00 | 73 | 1007.8 |
| 20260509074701 | 42 | 103 | 0.0 | 0.0 | 0.00 | 0.02 | 0.00 | 72 | 1007.8 |
| 20260509073702 | 42 | 103 | 0.0 | 0.0 | 0.00 | 0.02 | 0.00 | 72 | 1007.9 |
| 20260509072702 | 42 | 103 | 0.0 | 0.0 | 0.00 | 0.02 | 0.00 | 72 | 1008.0 |
| 20260509071702 | 43 | 103 | 0.0 | 0.0 | 0.00 | 0.02 | 0.00 | 72 | 1008.1 |
| 20260509070702 | 43 | 103 | 0.0 | 0.0 | 0.00 | 0.02 | 0.00 | 72 | 1008.2 |
| 20260509065701 | 43 | 103 | 0.0 | 0.0 | 0.00 | 0.02 | 0.00 | 71 | 1008.3 |
| 20260509064702 | 43 | 103 | 0.0 | 0.0 | 0.00 | 0.02 | 0.00 | 71 | 1008.4 |
| 20260509064144 | 43 | 103 | 0.0 | 0.0 | 0.00 | 0.02 | 0.00 | 71 | 1008.5 |
| 20260509062703 | 43 | 103 | 0.0 | 0.0 | 0.00 | 0.02 | 0.00 | 71 | 1008.6 |
| 20260509061702 | 43 | 103 | 0.0 | 0.0 | 0.00 | 0.02 | 0.00 | 72 | 1008.7 |
| 20260509060701 | 43 | 103 | 0.0 | 0.0 | 0.00 | 0.02 | 0.00 | 72 | 1008.7 |
| 20260509055701 | 43 | 103 | 0.0 | 0.0 | 0.00 | 0.02 | 0.00 | 73 | 1008.9 |
| 20260509055133 | 44 | 103 | 0.0 | 0.0 | 0.00 | 0.02 | 0.00 | 72 | 1009.0 |
| 20260509053701 | 44 | 103 | 0.0 | 0.0 | 0.00 | 0.02 | 0.00 | 72 | 1009.0 |
| 20260509052701 | 44 | 103 | 0.0 | 0.0 | 0.00 | 0.02 | 0.00 | 73 | 1009.3 |
| 20260509051701 | 44 | 103 | 0.0 | 0.0 | 0.00 | 0.02 | 0.00 | 73 | 1009.3 |
| 20260509050701 | 44 | 103 | 0.0 | 0.0 | 0.00 | 0.02 | 0.00 | 74 | 1009.4 |
| 20260509045702 | 44 | 103 | 0.0 | 0.0 | 0.00 | 0.02 | 0.00 | 76 | 1009.4 |
| 20260509045200 | 43 | 103 | 0.0 | 0.0 | 0.00 | 0.03 | 0.03 | 78 | 1009.9 |
| 20260509044953 | 44 | 103 | 0.0 | 0.0 | 0.00 | 0.06 | 0.03 | 74 | 1010.0 |
| 20260509044949 | 43 | 103 | 0.0 | 0.0 | 0.00 | 0.06 | 0.03 | 76 | 1010.0 |
| 20260509044945 | 43 | 103 | 0.0 | 0.0 | 0.00 | 0.06 | 0.03 | 78 | 1010.0 |
| 20260509044940 | 43 | 103 | 0.0 | 0.0 | 0.00 | 0.06 | 0.03 | 79 | 1010.1 |
| 20260509044936 | 43 | 103 | 0.0 | 0.0 | 0.00 | 0.04 | 0.03 | 79 | 1010.1 |
| 20260509044715 | 43 | 103 | 0.0 | 0.0 | 0.00 | 0.05 | 0.03 | 79 | 1010.1 |
| 20260509044710 | 42 | 103 | 0.0 | 0.0 | 0.00 | 0.02 | 0.00 | 81 | 1009.8 |
| 20260509044706 | 43 | 103 | 0.0 | 0.0 | 0.00 | 0.02 | 0.00 | 78 | 1009.4 |
| 20260509044444 | 42 | 103 | 0.0 | 0.0 | 0.00 | 0.03 | 0.03 | 81 | 1009.8 |
| 20260509044223 | 43 | 103 | 0.0 | 0.0 | 0.00 | 0.03 | 0.03 | 80 | 1009.9 |
| 20260509043740 | 42 | 103 | 0.0 | 0.0 | 0.00 | 0.03 | 0.03 | 81 | 1009.8 |
| 20260509043736 | 42 | 103 | 0.0 | 0.0 | 0.00 | 0.02 | 0.00 | 81 | 1009.7 |
| 20260509043732 | 43 | 103 | 0.0 | 0.0 | 0.00 | 0.02 | 0.00 | 80 | 1009.5 |
| 20260509043249 | 43 | 103 | 0.0 | 0.0 | 0.00 | 0.03 | 0.03 | 79 | 1009.9 |
| 20260509043154 | 44 | 103 | 0.0 | 0.0 | 0.00 | 0.06 | 0.03 | 73 | 1010.0 |
| 20260509043143 | 42 | 103 | 0.0 | 0.0 | 0.00 | 0.02 | 0.00 | 81 | 1009.6 |
| 20260509015642 | 45 | 103 | 0.0 | 0.0 | 0.00 | 0.07 | 0.03 | 70 | 1010.0 |
| 20260509014640 | 45 | 103 | 0.0 | 0.0 | 0.00 | 0.07 | 0.03 | 68 | 1010.0 |
| 20260509014113 | 46 | 103 | 0.0 | 0.0 | 0.00 | 0.07 | 0.03 | 68 | 1010.1 |
| 20260509012641 | 46 | 103 | 0.0 | 0.0 | 0.00 | 0.08 | 0.03 | 67 | 1010.1 |
| 20260509011637 | 47 | 103 | 0.0 | 0.0 | 0.00 | 0.08 | 0.03 | 66 | 1010.1 |
| 20260509010637 | 48 | 103 | 0.0 | 0.0 | 0.00 | 0.08 | 0.03 | 61 | 1010.0 |
| 20260509005636 | 48 | 103 | 0.0 | 0.0 | 0.00 | 0.08 | 0.03 | 58 | 1009.7 |
| 20260509004636 | 49 | 103 | 0.0 | 0.0 | 0.00 | 0.08 | 0.03 | 57 | 1009.5 |
| 20260509003636 | 49 | 103 | 0.0 | 0.0 | 0.00 | 0.08 | 0.03 | 57 | 1009.4 |
| 20260509002636 | 50 | 104 | 0.0 | 0.0 | 0.00 | 0.08 | 0.03 | 56 | 1009.4 |
| 20260509001637 | 50 | 103 | 0.0 | 0.0 | 0.00 | 0.08 | 0.03 | 55 | 1009.4 |
| 20260509000636 | 51 | 104 | 0.0 | 0.0 | 0.00 | 0.08 | 0.03 | 54 | 1009.3 |
| 20260508235636 | 51 | 106 | 0.0 | 0.0 | 0.00 | 0.08 | 0.03 | 53 | 1009.3 |
| 20260508234636 | 51 | 105 | 0.0 | 0.0 | 0.00 | 0.08 | 0.03 | 52 | 1009.3 |
| 20260508233636 | 51 | 104 | 0.0 | 0.0 | 0.00 | 0.08 | 0.03 | 54 | 1009.2 |
| 20260508232631 | 51 | 103 | 0.0 | 0.0 | 0.00 | 0.08 | 0.03 | 54 | 1009.2 |
| 20260508231630 | 52 | 103 | 0.0 | 0.0 | 0.00 | 0.08 | 0.03 | 54 | 1009.1 |
| 20260508231107 | 52 | 103 | 0.0 | 0.0 | 0.00 | 0.08 | 0.03 | 54 | 1009.1 |
| 20260508230106 | 52 | 103 | 0.0 | 0.0 | 0.00 | 0.08 | 0.03 | 53 | 1009.1 |
| 20260508224630 | 52 | 103 | 0.0 | 0.0 | 0.00 | 0.08 | 0.03 | 52 | 1009.2 |
| 20260508223632 | 52 | 103 | 0.0 | 0.0 | 0.00 | 0.08 | 0.03 | 53 | 1009.2 |
| 20260508222631 | 52 | 104 | 0.0 | 0.0 | 0.00 | 0.08 | 0.03 | 54 | 1009.2 |
| 20260508221630 | 53 | 103 | 0.0 | 0.0 | 0.00 | 0.08 | 0.03 | 53 | 1009.2 |
| 20260508220630 | 54 | 103 | 0.0 | 0.0 | 0.00 | 0.08 | 0.03 | 53 | 1009.2 |
| 20260508215630 | 54 | 103 | 0.0 | 0.0 | 0.00 | 0.08 | 0.03 | 51 | 1009.3 |
| 20260508214630 | 54 | 103 | 0.0 | 0.0 | 0.00 | 0.08 | 0.03 | 55 | 1009.4 |
| 20260508213630 | 55 | 103 | 0.0 | 0.0 | 0.00 | 0.08 | 0.03 | 56 | 1009.4 |
| 20260508212630 | 55 | 103 | 0.0 | 0.0 | 0.00 | 0.08 | 0.03 | 55 | 1009.5 |
| 20260508211630 | 55 | 103 | 0.0 | 0.0 | 0.00 | 0.08 | 0.03 | 55 | 1009.5 |
| 20260508210630 | 55 | 103 | 0.0 | 0.0 | 0.00 | 0.08 | 0.03 | 57 | 1009.5 |
| 20260508205630 | 54 | 103 | 0.0 | 0.0 | 0.00 | 0.08 | 0.03 | 57 | 1009.6 |
| 20260508205118 | 55 | 103 | 0.0 | 0.0 | 0.00 | 0.08 | 0.03 | 56 | 1009.7 |
| 20260508203629 | 55 | 103 | 0.0 | 0.0 | 0.00 | 0.08 | 0.03 | 58 | 1009.7 |
| 20260508202630 | 55 | 103 | 0.0 | 0.9 | 0.00 | 0.08 | 0.03 | 59 | 1009.8 |
| 20260508202113 | 55 | 103 | 0.0 | 0.0 | 0.00 | 0.08 | 0.03 | 57 | 1010.0 |
| 20260508200629 | 54 | 103 | 0.0 | 0.0 | 0.00 | 0.08 | 0.03 | 59 | 1010.1 |
| 20260508195630 | 54 | 103 | 0.0 | 0.0 | 0.00 | 0.08 | 0.03 | 59 | 1010.2 |
| 20260508194629 | 53 | 103 | 0.0 | 0.0 | 0.00 | 0.08 | 0.03 | 61 | 1010.3 |
| 20260508193629 | 53 | 103 | 0.0 | 0.0 | 0.00 | 0.08 | 0.03 | 62 | 1010.4 |
| 20260508193108 | 53 | 103 | 0.0 | 0.9 | 0.00 | 0.08 | 0.03 | 63 | 1010.4 |
| 20260508191629 | 53 | 103 | 0.0 | 0.0 | 0.00 | 0.08 | 0.03 | 62 | 1010.7 |
| 20260508190630 | 51 | 103 | 0.0 | 0.9 | 0.00 | 0.08 | 0.03 | 64 | 1010.7 |
| 20260508185629 | 51 | 107 | 0.0 | 0.9 | 0.00 | 0.08 | 0.03 | 65 | 1010.6 |
| 20260508184629 | 52 | 107 | 0.0 | 2.6 | 0.00 | 0.08 | 0.03 | 62 | 1010.6 |
| 20260508184114 | 54 | 119 | 0.0 | 7.0 | 0.00 | 0.08 | 0.03 | 59 | 1010.5 |
| 20260508182629 | 55 | 208 | 0.0 | 3.5 | 0.00 | 0.08 | 0.03 | 45 | 1010.5 |
| 20260508182121 | 55 | 205 | 0.0 | 0.9 | 0.00 | 0.08 | 0.03 | 51 | 1010.6 |
| 20260508180629 | 54 | 205 | 0.0 | 2.6 | 0.00 | 0.08 | 0.03 | 49 | 1010.7 |
| 20260508175630 | 53 | 204 | 0.0 | 0.9 | 0.00 | 0.08 | 0.03 | 55 | 1010.7 |
| 20260508174629 | 53 | 204 | 0.0 | 0.9 | 0.00 | 0.08 | 0.03 | 53 | 1010.9 |
| 20260508173630 | 53 | 204 | 0.0 | 4.3 | 0.00 | 0.08 | 0.03 | 57 | 1011.0 |
| 20260508172630 | 53 | 201 | 0.0 | 0.0 | 0.00 | 0.08 | 0.03 | 56 | 1011.1 |
| 20260508171630 | 52 | 201 | 0.0 | 0.9 | 0.00 | 0.08 | 0.03 | 59 | 1011.2 |
| 20260508171108 | 52 | 201 | 0.0 | 0.9 | 0.00 | 0.08 | 0.03 | 57 | 1011.1 |
| 20260508165629 | 53 | 201 | 0.0 | 0.9 | 0.00 | 0.08 | 0.03 | 58 | 1011.2 |
| 20260508164629 | 51 | 201 | 0.0 | 7.0 | 0.00 | 0.08 | 0.03 | 58 | 1011.5 |
| 20260508163629 | 52 | 242 | 0.0 | 1.7 | 0.00 | 0.08 | 0.03 | 58 | 1011.5 |
| 20260508162629 | 50 | 244 | 0.0 | 3.5 | 0.00 | 0.08 | 0.03 | 60 | 1011.7 |
| 20260508161629 | 50 | 246 | 0.0 | 6.1 | 0.00 | 0.08 | 0.03 | 65 | 1011.8 |
| 20260508160629 | 49 | 247 | 0.0 | 2.6 | 0.00 | 0.08 | 0.03 | 64 | 1011.9 |
| 20260508155629 | 49 | 248 | 0.0 | 2.6 | 0.00 | 0.08 | 0.03 | 64 | 1011.9 |
| 20260508154629 | 49 | 0 | 0.0 | 0.0 | 0.00 | 0.08 | 0.03 | 65 | 1012.0 |
| 20260508153629 | 47 | 248 | 0.0 | 0.0 | 0.00 | 0.08 | 0.03 | 73 | 1011.9 |
| 20260508152624 | 47 | 0 | 0.0 | 0.9 | 0.00 | 0.08 | 0.03 | 75 | 1011.9 |
| 20260508151623 | 47 | 248 | 0.0 | 3.5 | 0.00 | 0.08 | 0.03 | 79 | 1011.8 |
| 20260508150623 | 47 | 249 | 0.0 | 1.7 | 0.00 | 0.08 | 0.03 | 79 | 1011.9 |
| 20260508145623 | 46 | 0 | 0.0 | 0.9 | 0.00 | 0.08 | 0.03 | 82 | 1011.8 |
| 20260508144624 | 46 | 249 | 0.0 | 2.6 | 0.00 | 0.08 | 0.03 | 81 | 1011.9 |
| 20260508143621 | 45 | 0 | 0.0 | 2.6 | 0.00 | 0.08 | 0.03 | 83 | 1011.9 |
| 20260508142621 | 45 | 0 | 0.0 | 0.0 | 0.00 | 0.08 | 0.03 | 86 | 1011.8 |
| 20260508142551 | 44 | 0 | 0.0 | 1.7 | 0.00 | 0.08 | 0.03 | 87 | 1011.8 |
| 20260508140621 | 44 | 0 | 0.0 | 0.9 | 0.00 | 0.08 | 0.03 | 88 | 1011.7 |
| 20260508135616 | 43 | 0 | 0.0 | 2.6 | 0.00 | 0.08 | 0.03 | 90 | 1011.5 |
| 20260508134615 | 42 | 0 | 0.0 | 0.0 | 0.01 | 0.08 | 0.03 | 90 | 1011.6 |
| 20260508133615 | 41 | 253 | 0.0 | 0.0 | 0.02 | 0.08 | 0.03 | 90 | 1011.7 |
| 20260508132615 | 41 | 253 | 0.0 | 2.6 | 0.02 | 0.08 | 0.03 | 90 | 1012.0 |
| 20260508131615 | 42 | 254 | 0.0 | 7.0 | 0.02 | 0.08 | 0.03 | 91 | 1012.1 |
| 20260508130615 | 41 | 254 | 0.0 | 7.0 | 0.02 | 0.08 | 0.03 | 91 | 1012.0 |
| 20260508125615 | 41 | 275 | 0.0 | 5.2 | 0.02 | 0.08 | 0.03 | 91 | 1011.9 |
| 20260508124615 | 42 | 290 | 0.0 | 0.9 | 0.01 | 0.07 | 0.02 | 92 | 1012.0 |
| 20260508123614 | 42 | 293 | 0.0 | 0.9 | 0.00 | 0.06 | 0.01 | 92 | 1011.8 |
| 20260508122609 | 43 | 299 | 0.0 | 0.0 | 0.00 | 0.06 | 0.01 | 92 | 1011.7 |
| 20260508121609 | 42 | 299 | 0.0 | 0.0 | 0.00 | 0.06 | 0.01 | 92 | 1011.6 |
| 20260508120609 | 42 | 299 | 0.0 | 0.0 | 0.00 | 0.06 | 0.01 | 92 | 1011.6 |
| 20260508120045 | 42 | 299 | 0.0 | 0.0 | 0.00 | 0.06 | 0.01 | 92 | 1011.5 |
| 20260508114609 | 42 | 299 | 0.0 | 0.0 | 0.00 | 0.06 | 0.01 | 92 | 1011.2 |
| 20260508113609 | 42 | 298 | 0.0 | 0.0 | 0.00 | 0.06 | 0.01 | 92 | 1011.0 |